Location: Newark
(45.9456°N, 15.4064°E)
Time: 06:23:45
(UTC+00:00)

Vanguard 2 Rocket - All Passes

Search period start: 18 January 2020 00:00
Search period end: 28 January 2020 00:00
Orbit: 554 x 3326 km, 32.9° (Epoch: 17 January)

Date Brightness Start Highest point End Pass type
(mag) Time Alt. Az. Time Alt. Az. Time Alt. Az.
18 Jan - 05:44:08 10° SSW 05:49:22 25° SSE 05:57:09 10° ESE visible
18 Jan - 07:54:29 10° WSW 08:02:10 40° S 08:14:58 10° ESE daylight
18 Jan - 10:06:46 10° WSW 10:16:36 36° SSW 10:31:33 10° SE daylight
18 Jan - 12:21:59 10° WSW 12:31:43 21° SSW 12:43:50 10° S daylight
19 Jan - 04:46:45 10° S 04:50:18 16° SE 04:54:53 10° ESE visible
19 Jan - 06:55:53 10° SW 07:02:22 35° SSE 07:12:57 10° ESE daylight
19 Jan - 09:07:29 10° WSW 09:16:07 38° S 09:29:58 10° SE daylight
19 Jan - 11:21:15 10° WSW 11:30:57 25° SSW 11:44:07 10° SSE daylight
20 Jan - 05:57:35 10° SW 06:02:53 28° SSE 06:11:05 10° ESE visible
20 Jan - 08:08:30 10° WSW 08:15:57 38° S 08:28:12 10° ESE daylight
20 Jan - 10:21:17 10° WSW 10:30:20 29° SSW 10:43:33 10° SSE daylight
20 Jan - 12:39:14 10° WSW 12:45:14 13° SW 12:52:04 10° SSW daylight
21 Jan - 04:59:39 10° SSW 05:03:44 20° SSE 05:09:22 10° ESE visible
21 Jan - 07:09:48 10° WSW 07:16:07 35° S 07:26:26 10° ESE daylight
21 Jan - 09:21:49 10° WSW 09:29:56 31° SSW 09:42:28 10° SE daylight
21 Jan - 11:36:59 10° WSW 11:44:37 17° SSW 11:54:12 10° S daylight
22 Jan - 04:02:40 10° S 04:04:47 12° SSE 04:07:15 10° ESE visible
22 Jan - 06:11:19 10° SW 06:16:35 30° SSE 06:24:49 10° ESE daylight
22 Jan - 08:22:43 10° WSW 08:29:48 33° S 08:41:06 10° SE daylight
22 Jan - 10:36:21 10° WSW 10:44:06 21° SSW 10:54:40 10° SSE daylight
23 Jan - 05:13:06 10° SSW 05:17:21 23° SSE 05:23:25 10° ESE visible
23 Jan - 07:23:53 10° WSW 07:29:57 32° S 07:39:39 10° SE daylight
23 Jan - 09:36:31 10° WSW 09:43:47 24° SSW 09:54:18 10° SSE daylight
24 Jan - 04:15:18 10° SSW 04:18:19 16° SSE 04:22:05 10° ESE visible
24 Jan - 06:25:16 10° SW 06:30:24 29° S 06:38:19 10° ESE daylight
24 Jan - 08:37:10 10° WSW 08:43:42 26° SSW 08:53:30 10° SE daylight
24 Jan - 10:52:53 10° SW 10:57:55 13° SSW 11:03:57 10° S daylight
25 Jan - 05:26:51 10° SW 05:31:05 25° SSE 05:37:11 10° ESE visible
25 Jan - 07:38:11 10° WSW 07:43:51 27° S 07:52:31 10° SE daylight
25 Jan - 09:52:01 10° WSW 09:57:41 16° SSW 10:05:02 10° S daylight
26 Jan - 04:28:40 10° SSW 04:31:59 19° SSE 04:36:16 10° ESE visible
26 Jan - 06:39:26 10° WSW 06:44:17 26° S 06:51:32 10° SE daylight
26 Jan - 08:52:10 10° WSW 08:57:38 19° SSW 09:05:07 10° SSE daylight
27 Jan - 03:30:56 10° S 03:32:59 13° SSE 03:35:18 10° SE visible
27 Jan - 05:40:51 10° SW 05:44:56 24° S 05:50:44 10° SE visible
27 Jan - 07:52:52 10° WSW 07:57:50 20° SSW 08:04:48 10° SSE daylight
